Volver al catálogo

CZ-4 DEB

ActivoSSO
NORAD 37623·DEBRIS·🇨🇳 China

Lanzado Sep 3, 1990 desde Taiyuan Satellite Launch Center

Loading…

Próximos Pases (próximas 24 horas)

TLE

ActualizadoSource: Space-Track

Época: Sep 14, 2026, 03:36 UTC

1 37623U 90081DK  26257.15065134  .00000333  00000-0  17808-3 0  9992
2 37623  98.7466 243.4309 0020286 245.6085 114.2974 14.19669104679849

Sigue CZ-4 DEB en tiempo real con AllMySat

Download on the App Store